Regional Weather Roundup
Issued by NWS Bismarck, ND

Home | Current Version | Previous Version | Text Only | Print | Product List | Glossary On
Versions: 1 2 3 4 5 6 7 8 9 10 11 12 13 14 15 16 17 18 19 20 21 22 23 24 25 26 27 28 29 30 31 32 33 34 35 36 37 38 39 40 41 42 43 44 45 46 47 48 49 50
000
ASUS43 KBIS 260520
RWRBIS

NWR BROADCAST TEXT
NATIONAL WEATHER SERVICE BISMARCK ND
1200 AM CDT SAT JUL 26 2014

NOTE: "FAIR" INDICATES FEW OR NO CLOUDS BELOW 12,000 FEET WITH NO
SIGNIFICANT WEATHER AND/OR OBSTRUCTIONS TO VISIBILITY.


CITY           SKY/WX    TMP DP  RH WIND       PRES   REMARKS
WILLISTON      CLEAR     61  50  67 N9        29.84R
MINOT          CLEAR     64  56  75 SE3       29.76F
MINOT AFB      CLEAR     62  60  94 S5        29.75F
BISMARCK       CLEAR     60  55  83 SE7       29.81R
DICKINSON      CLEAR     66  52  60 SW10      29.84R
GARRISON         N/A     60  57  89 CALM      29.79R
HETTINGER ARPT CLEAR     62  50  64 S6        29.87S
JAMESTOWN      CLEAR     61  56  83 SE5       29.82S
CARRINGTON     FAIR      59  59 100 S5        29.83R
CROSBY           N/A     55  55 100 S7        29.80F
HARVEY         FAIR      59  57  94 S7        29.80S
HAZEN          FAIR      59  54  82 S9        29.81S
LINTON         FAIR      63  57  82 SE9       29.84S
MANDAN         FAIR      63  54  72 S8        29.82S
RUGBY          FAIR      63  57  82 S8        29.78S
STANLEY        FAIR      57  57 100 W5        29.79S
TIOGA          FAIR      57  57 100 NW10      29.86R
WATFORD CITY   FAIR      59  54  82 N9        29.83R
$$

CITY           SKY/WX    TMP DP  RH WIND       PRES   REMARKS
GRAND FORKS    CLEAR     60  57  89 SW7       29.77S
GRAND FORKS AF CLEAR     61  60  95 S6        29.79S
DEVILS LAKE    CLEAR     63  55  77 S5        29.79S
FARGO          CLEAR     62  56  80 CALM      29.81S
CANDO          FAIR      61  57  88 S9        29.79S
CAVALIER       FAIR      63  55  77 SW7       29.76S
GRAFTON        FAIR      59  55  88 SW8       29.76S
GWINNER          N/A     63  63 100 CALM      29.84F
LANGDON        FAIR      55  54  94 SW9       29.78F
ROLLA          FAIR      57  57 100 SW8       29.79S
WALHALLA         N/A     64  57  77 SW6         N/A
$$

CITY           SKY/WX    TMP DP  RH WIND       PRES   REMARKS
ABERDEEN       CLEAR     56  55  97 S5        29.85S
MOBRIDGE       CLEAR     63  56  78 SE8       29.83S
BUFFALO          N/A     70  50  49 CALM      29.85R
RAPID CITY     CLEAR     64  53  67 N7        29.87F
GLASGOW        CLEAR     61  48  62 W15       29.89R
SIDNEY         CLEAR     63  48  59 NW10      29.87R
WOLF POINT     CLEAR     60  48  64 SW8       29.87R
GLENDIVE       CLEAR     64  43  45 N16       29.90R
MILES CITY     CLEAR     67  29  24 NW9       29.89R
BAKER          CLEAR     55  44  66 SE3       29.91R
$$

CITY           SKY/WX    TMP DP  RH WIND       PRES   REMARKS
BILLINGS       CLEAR     72  29  20 N12       29.99R
GREAT FALLS    CLEAR     63  36  36 W12       30.02R
REGINA         MOCLDY    57  54  88 SW15      29.67S
ESTEVAN        PTCLDY    55  54  94 S3        29.78F
$$



USA.gov is the U.S. government's official web portal to all federal, state and local government web resources and services.